When you browse on this site, cookies collect data to enhance your experience and personalize the content and advertising you see.
Visit our Privacy Policy to learn more. By continuing to use the site, you agree to this use of cookies and data.
  • In United Kingdom
  • List of Countries
  • For 7 days
  • Water Temperature
  • Weather Map
  • Weather Widgets
  • user-avatar
    Login

    Hourly Weather Jewłach

    Today, 16 September, Monday

    Time Temperature Precipitation Wind Pressure Humidity
    00:00 +22°C° 0 mm 3 mps 763 mmHg 69%
    01:00 +23°C° 0.1 mm 2 mps 763 mmHg 71%
    02:00 +23°C° 0.1 mm 2 mps 763 mmHg 74%
    03:00 +21°C° 0 mm 2 mps 763 mmHg 78%
    04:00 +21°C° 0.5 mm 2 mps 764 mmHg 81%
    05:00 +21°C° 0.5 mm 2 mps 764 mmHg 84%
    06:00 +20°C° 0.5 mm 2 mps 764 mmHg 87%
    07:00 +23°C° 0.4 mm 2 mps 764 mmHg 81%
    08:00 +24°C° 0.4 mm 3 mps 764 mmHg 75%
    09:00 +25°C° 0 mm 3 mps 764 mmHg 69%
    10:00 +27°C° 0.4 mm 3 mps 763 mmHg 64%
    11:00 +28°C° 0.4 mm 4 mps 762 mmHg 58%
    12:00 +29°C° 0.4 mm 4 mps 762 mmHg 53%
    13:00 +30°C° 0 mm 4 mps 761 mmHg 49%
    14:00 +30°C° 0 mm 4 mps 760 mmHg 46%
    15:00 +32°C° 0 mm 4 mps 759 mmHg 43%
    16:00 +30°C° 0 mm 4 mps 759 mmHg 47%
    17:00 +29°C° 0 mm 3 mps 759 mmHg 51%
    18:00 +28°C° 0 mm 3 mps 758 mmHg 56%
    19:00 +27°C° 0 mm 2 mps 759 mmHg 59%
    20:00 +26°C° 0 mm 2 mps 759 mmHg 63%
    21:00 +25°C° 0 mm 1 mps 759 mmHg 66%
    22:00 +25°C° 0 mm 1 mps 759 mmHg 69%
    23:00 +24°C° 0 mm 1 mps 758 mmHg 71%

    Tomorrow, 17 September, Tuesday

    Time Temperature Precipitation Wind Pressure Humidity
    00:00 +24°C° 0 mm 1 mps 758 mmHg 73%
    01:00 +23°C° 0 mm 1 mps 758 mmHg 74%
    02:00 +23°C° 0 mm 1 mps 758 mmHg 76%
    03:00 +23°C° 0 mm 1 mps 758 mmHg 77%
    04:00 +23°C° 0 mm 1 mps 757 mmHg 77%
    05:00 +22°C° 0 mm 1 mps 757 mmHg 77%
    06:00 +22°C° 0 mm 1 mps 757 mmHg 78%
    07:00 +24°C° 0 mm 1 mps 757 mmHg 69%
    08:00 +26°C° 0 mm 2 mps 757 mmHg 61%
    09:00 +28°C° 0 mm 2 mps 757 mmHg 53%
    10:00 +29°C° 0 mm 2 mps 757 mmHg 48%
    11:00 +31°C° 0 mm 2 mps 756 mmHg 42%
    12:00 +34°C° 0 mm 3 mps 756 mmHg 37%
    13:00 +34°C° 0 mm 2 mps 755 mmHg 35%
    14:00 +35°C° 0 mm 2 mps 755 mmHg 32%
    15:00 +36°C° 0 mm 2 mps 754 mmHg 29%
    16:00 +35°C° 0 mm 2 mps 754 mmHg 32%
    17:00 +32°C° 0 mm 1 mps 754 mmHg 34%
    18:00 +31°C° 0 mm 1 mps 754 mmHg 37%
    19:00 +30°C° 0 mm 3 mps 755 mmHg 40%
    20:00 +29°C° 0 mm 6 mps 756 mmHg 43%
    21:00 +28°C° 0 mm 8 mps 757 mmHg 46%
    22:00 +27°C° 0.1 mm 6 mps 757 mmHg 51%
    23:00 +26°C° 0.1 mm 5 mps 758 mmHg 57%

    Day after tomorrow, 18 September, Wednesday

    Time Temperature Precipitation Wind Pressure Humidity
    00:00 +25°C° 0.1 mm 3 mps 758 mmHg 62%
    01:00 +25°C° 0 mm 4 mps 758 mmHg 62%
    02:00 +23°C° 0 mm 4 mps 758 mmHg 63%
    03:00 +23°C° 0 mm 4 mps 758 mmHg 64%
    04:00 +23°C° 0 mm 4 mps 759 mmHg 64%
    05:00 +23°C° 0 mm 4 mps 759 mmHg 64%
    06:00 +23°C° 0 mm 4 mps 759 mmHg 64%
    07:00 +25°C° 0 mm 5 mps 760 mmHg 57%
    08:00 +27°C° 0 mm 6 mps 760 mmHg 50%
    09:00 +29°C° 0 mm 7 mps 760 mmHg 42%
    10:00 +32°C° 0 mm 6 mps 760 mmHg 37%
    11:00 +33°C° 0 mm 6 mps 760 mmHg 32%
    12:00 +35°C° 0 mm 6 mps 760 mmHg 27%
    13:00 +35°C° 0 mm 5 mps 759 mmHg 25%
    14:00 +35°C° 0 mm 4 mps 759 mmHg 24%
    15:00 +36°C° 0 mm 3 mps 759 mmHg 23%
    16:00 +34°C° 0 mm 2 mps 759 mmHg 26%
    17:00 +31°C° 0 mm 2 mps 759 mmHg 29%
    18:00 +30°C° 0 mm 1 mps 759 mmHg 32%
    19:00 +29°C° 0 mm 3 mps 759 mmHg 42%
    20:00 +27°C° 0 mm 4 mps 760 mmHg 52%
    21:00 +26°C° 0 mm 6 mps 760 mmHg 62%
    22:00 +25°C° 0 mm 4 mps 760 mmHg 67%
    23:00 +24°C° 0 mm 3 mps 760 mmHg 72%

    19 September, Thursday

    Time Temperature Precipitation Wind Pressure Humidity
    00:00 +23°C° 0 mm 2 mps 759 mmHg 77%
    01:00 +23°C° 0 mm 2 mps 759 mmHg 78%
    02:00 +23°C° 0 mm 1 mps 759 mmHg 78%
    03:00 +22°C° 0 mm 1 mps 759 mmHg 79%
    04:00 +21°C° 0 mm 2 mps 759 mmHg 79%
    05:00 +21°C° 0 mm 2 mps 759 mmHg 78%
    06:00 +21°C° 0 mm 3 mps 759 mmHg 78%
    07:00 +25°C° 0 mm 4 mps 759 mmHg 65%
    08:00 +27°C° 0 mm 4 mps 759 mmHg 52%
    09:00 +30°C° 0 mm 5 mps 759 mmHg 39%
    10:00 +33°C° 0 mm 5 mps 759 mmHg 33%
    11:00 +35°C° 0 mm 5 mps 759 mmHg 28%
    12:00 +36°C° 0 mm 5 mps 759 mmHg 22%
    13:00 +37°C° 0 mm 5 mps 759 mmHg 19%
    14:00 +39°C° 0 mm 5 mps 759 mmHg 17%
    15:00 +38°C° 0 mm 4 mps 759 mmHg 14%
    16:00 +36°C° 0 mm 3 mps 759 mmHg 16%
    17:00 +34°C° 0 mm 2 mps 759 mmHg 17%
    18:00 +31°C° 0 mm 1 mps 760 mmHg 19%
    19:00 +29°C° 0 mm 3 mps 760 mmHg 33%
    20:00 +27°C° 0 mm 4 mps 761 mmHg 46%
    21:00 +24°C° 0 mm 6 mps 761 mmHg 60%
    22:00 +23°C° 0 mm 5 mps 761 mmHg 65%
    23:00 +23°C° 0 mm 5 mps 761 mmHg 70%

    20 September, Friday

    Time Temperature Precipitation Wind Pressure Humidity
    00:00 +22°C° 0 mm 4 mps 761 mmHg 75%
    01:00 +22°C° 0 mm 3 mps 761 mmHg 76%
    02:00 +21°C° 0 mm 3 mps 761 mmHg 77%
    03:00 +21°C° 0 mm 3 mps 761 mmHg 78%
    04:00 +21°C° 0 mm 2 mps 761 mmHg 78%
    05:00 +21°C° 0 mm 2 mps 761 mmHg 78%
    06:00 +20°C° 0 mm 2 mps 760 mmHg 78%
    07:00 +22°C° 0 mm 3 mps 760 mmHg 70%
    08:00 +24°C° 0 mm 3 mps 760 mmHg 61%
    09:00 +26°C° 0 mm 3 mps 760 mmHg 53%
    10:00 +27°C° 0 mm 3 mps 759 mmHg 48%
    11:00 +28°C° 0 mm 3 mps 758 mmHg 44%
    12:00 +30°C° 0 mm 3 mps 758 mmHg 40%
    13:00 +30°C° 0 mm 2 mps 757 mmHg 38%
    14:00 +31°C° 0 mm 2 mps 756 mmHg 36%
    15:00 +31°C° 0 mm 1 mps 756 mmHg 34%
    16:00 +30°C° 0 mm 1 mps 755 mmHg 37%
    17:00 +29°C° 0 mm 1 mps 755 mmHg 40%
    18:00 +28°C° 0 mm 1 mps 755 mmHg 43%
    19:00 +27°C° 0 mm 1 mps 755 mmHg 45%
    20:00 +26°C° 0 mm 1 mps 756 mmHg 48%
    21:00 +26°C° 0 mm 1 mps 756 mmHg 50%
    22:00 +25°C° 0 mm 1 mps 756 mmHg 55%
    23:00 +24°C° 0 mm 2 mps 756 mmHg 60%

    21 September, Saturday

    Time Temperature Precipitation Wind Pressure Humidity
    00:00 +23°C° 0 mm 2 mps 756 mmHg 66%
    01:00 +23°C° 0 mm 1 mps 755 mmHg 69%
    02:00 +22°C° 0 mm 1 mps 755 mmHg 73%
    03:00 +19°C° 0 mm 0 mps 755 mmHg 76%
    04:00 +19°C° 0 mm 0 mps 755 mmHg 76%
    05:00 +21°C° 0 mm 1 mps 755 mmHg 76%
    06:00 +21°C° 0 mm 1 mps 755 mmHg 76%
    07:00 +23°C° 0 mm 2 mps 755 mmHg 67%
    08:00 +25°C° 0 mm 3 mps 755 mmHg 59%
    09:00 +27°C° 0 mm 4 mps 755 mmHg 50%
    10:00 +28°C° 0 mm 4 mps 755 mmHg 46%
    11:00 +29°C° 0 mm 3 mps 754 mmHg 42%
    12:00 +30°C° 0 mm 3 mps 754 mmHg 38%
    13:00 +31°C° 0 mm 3 mps 753 mmHg 36%
    14:00 +31°C° 0 mm 3 mps 753 mmHg 35%
    15:00 +33°C° 0 mm 3 mps 752 mmHg 34%
    16:00 +31°C° 0 mm 3 mps 753 mmHg 35%
    17:00 +30°C° 0 mm 4 mps 753 mmHg 36%
    18:00 +29°C° 0 mm 5 mps 754 mmHg 37%
    19:00 +27°C° 0 mm 7 mps 755 mmHg 37%
    20:00 +26°C° 0 mm 9 mps 756 mmHg 37%
    21:00 +23°C° 0 mm 10 mps 757 mmHg 37%
    22:00 +22°C° 0 mm 11 mps 757 mmHg 36%
    23:00 +21°C° 0 mm 11 mps 758 mmHg 35%
    Show more